Location: Franzen
(48.6167°N, 15.3833°E)
Time: 18:17:05
(UTC+00:00)

A-11 Canister half - Pass Details

Date: 04 August 2021
Orbit: 1515 x 1685 km, 47.2° (Epoch: 19 September)

Event Time Altitude Azimuth Distance (km) Brightness Sun altitude
Rises 13:39:07 0° 199° (SSW) 4,727 12.1 45.6°
Reaches altitude 10° 13:42:40 10° 189° (S) 3,771 11.6 45.1°
Maximum altitude 13:50:27 29° 134° (SE) 2,631 10.4 43.9°
Drops below altitude 10° 13:58:28 10° 79° (E) 3,894 10.8 42.8°
Sets 14:02:10 0° 70° (ENE) 4,905 11.2 42.2°
